TimeMST,TemperatureF,Dew PointF,Humidity,Sea Level PressureIn,VisibilityMPH,Wind Direction,Wind SpeedMPH,Gust SpeedMPH,PrecipitationIn,Events,Conditions,WindDirDegrees,DateUTC
12:53 AM,28.0,25.0,88,30.37,10.0,WSW,5.8,-,N/A,,Mostly Cloudy,250,2013-11-07 07:53:00
1:53 AM,30.9,27.0,85,30.36,10.0,SW,6.9,-,N/A,,Overcast,230,2013-11-07 08:53:00
2:53 AM,32.0,26.1,79,30.35,10.0,South,5.8,-,N/A,,Overcast,190,2013-11-07 09:53:00
3:53 AM,32.0,26.1,79,30.34,10.0,SSW,4.6,-,N/A,,Overcast,210,2013-11-07 10:53:00
4:53 AM,34.0,25.0,70,30.36,10.0,Calm,Calm,-,N/A,,Overcast,0,2013-11-07 11:53:00
5:53 AM,33.1,26.1,75,30.37,10.0,SE,3.5,-,N/A,,Overcast,130,2013-11-07 12:53:00
6:53 AM,33.1,26.1,75,30.36,10.0,South,9.2,-,N/A,,Overcast,170,2013-11-07 13:53:00
7:53 AM,37.0,24.1,59,30.36,10.0,SSW,9.2,-,N/A,,Overcast,210,2013-11-07 14:53:00
8:53 AM,37.0,26.1,65,30.33,10.0,SSE,6.9,-,N/A,,Overcast,150,2013-11-07 15:53:00
9:53 AM,43.0,24.1,47,30.30,10.0,South,11.5,-,N/A,,Scattered Clouds,170,2013-11-07 16:53:00
10:53 AM,45.0,25.0,46,30.28,10.0,South,11.5,-,N/A,,Clear,190,2013-11-07 17:53:00
11:53 AM,50.0,26.1,39,30.22,10.0,South,6.9,-,N/A,,Clear,180,2013-11-07 18:53:00
12:53 PM,51.1,27.0,39,30.16,10.0,SE,13.8,-,N/A,,Clear,140,2013-11-07 19:53:00
1:53 PM,51.1,28.0,41,30.12,10.0,SSE,15.0,-,N/A,,Clear,150,2013-11-07 20:53:00
2:53 PM,50.0,28.0,43,30.08,10.0,SSE,12.7,-,N/A,,Clear,150,2013-11-07 21:53:00
3:53 PM,46.9,30.0,52,30.05,10.0,SE,16.1,-,N/A,,Clear,130,2013-11-07 22:53:00
4:53 PM,43.0,28.9,58,30.01,10.0,SSE,16.1,-,N/A,,Clear,150,2013-11-07 23:53:00
5:53 PM,42.1,28.9,60,29.98,10.0,South,18.4,-,N/A,,Clear,170,2013-11-08 00:53:00
6:53 PM,42.1,28.9,60,29.94,10.0,South,16.1,-,N/A,,Clear,170,2013-11-08 01:53:00
7:53 PM,43.0,28.9,58,29.87,10.0,South,19.6,-,N/A,,Clear,180,2013-11-08 02:53:00
8:53 PM,46.0,27.0,47,29.82,10.0,South,20.7,-,N/A,,Clear,190,2013-11-08 03:53:00
9:53 PM,48.9,27.0,43,29.77,10.0,SSW,21.9,27.6,N/A,,Scattered Clouds,210,2013-11-08 04:53:00
10:53 PM,48.0,28.0,46,29.71,10.0,SW,25.3,33.4,N/A,,Partly Cloudy,230,2013-11-08 05:53:00
11:53 PM,48.0,28.0,46,29.66,10.0,SW,25.3,32.2,N/A,,Clear,220,2013-11-08 06:53:00